#timestamp,LO_Frequency,Hit,StdDev 
1667718015.2,286046999.5,N
1667718035.1,286046999.4,N
1667718036.0,286046999.4,N
1667718055.8,286046999.0,N
1667718075.6,286046998.7,N
1667718095.5,286047000.8,N
1667718115.3,286046998.1,N
1667718135.2,286046998.3,N
1667718155.9,286046998.1,N
1667718175.7,286046999.0,N
1667718195.6,286046999.2,N
1667718215.4,286046998.9,N
1667718235.2,286046999.3,N
1667718255.1,286046999.0,N
1667718256.0,286046999.0,N
1667718275.8,286046999.9,N
1667718295.7,286046998.9,N
1667718315.5,286046998.2,N
1667718335.3,286046999.4,N
1667718355.2,286046999.1,N
1667718375.0,286046999.4,N
1667718375.9,286046999.4,N
1667718395.8,286046998.1,N
1667718415.6,286046998.7,N
1667718435.4,286046999.0,N
1667718455.3,286046999.3,N
1667718475.1,286046999.3,N
1667718495.8,286047000.5,N
1667718515.7,286047000.6,N
1667718535.5,286047000.6,N
1667718555.4,286047000.6,N
1667718575.2,286047000.7,N
1667718595.0,286046997.1,Y
1667718595.9,286046997.1,P
1667718615.8,286046999.3,N
1667718635.6,286046998.4,N
1667718655.5,286046999.1,N
1667718675.3,286047001.1,N
1667718695.1,286047000.2,N
1667718715.9,286047000.9,N
1667718735.7,286047002.6,N
1667718755.5,286047000.9,N
1667718775.4,286047000.0,N
1667718795.2,286046998.6,N
1667718815.1,286047000.4,N
1667718816.0,286047000.4,N
1667718835.8,286046998.2,N
1667718855.7,286046999.8,N
1667718875.5,286047000.4,N
1667718895.3,286047002.0,N
1667718915.2,286047002.7,N
1667718935.0,286047001.0,N
1667718935.9,286047001.0,N
1667718955.7,286046998.5,N
1667718975.6,286047000.6,N
1667718995.4,286046998.2,N
1667719015.3,286046997.2,N
1667719035.1,286046999.6,N
1667719055.8,286046999.4,N
1667719075.7,286047000.7,N
1667719095.5,286046998.4,N
1667719115.4,286047000.7,N
1667719135.2,286047000.9,N
1667719155.0,286047000.4,N
1667719155.9,286047000.4,N
1667719175.8,286047000.7,N
1667719195.6,286046999.7,N
1667719215.4,286047002.2,N
1667719235.3,286046999.7,N
1667719255.1,286047001.5,N
1667719275.9,286047001.6,N
1667719295.7,286047002.7,N
1667719315.5,286047002.4,N
1667719335.4,286047002.1,N
1667719355.2,286047002.7,N
1667719375.1,286047002.5,N
1667719376.0,286047002.5,N
1667719395.8,286047002.5,N
1667719415.6,286047002.6,N
1667719435.5,286047001.9,N
1667719455.3,286047001.7,N
1667719475.2,286047001.4,N
1667719495.0,286047002.1,N
1667719495.9,286047002.1,N
1667719515.8,286047002.1,N
1667719535.6,286047001.3,N
1667719555.4,286046999.9,N
1667719575.3,286047002.6,N
1667719595.1,286047000.1,N
1667719615.9,286047001.1,N
1667719635.7,286046998.3,N
1667719655.5,286046998.2,N
1667719675.4,286047000.4,N
1667719695.2,286046999.9,N
1667719715.0,286046998.9,N
1667719715.9,286046998.9,N
1667719735.8,286046999.0,N
1667719755.6,286046999.2,N
1667719775.5,286046998.6,N
1667719795.3,286047000.9,N
1667719815.1,286047000.5,N
1667719835.9,286046998.1,N
1667719855.7,286046998.5,N
1667719875.6,286047001.2,N
1667719895.4,286046997.0,N
1667719915.2,286046997.3,N
1667719935.1,286046998.1,N
1667719936.0,286046998.1,N
1667719955.8,286046998.5,N
1667719975.6,286047001.2,N
1667719995.5,286047000.6,N
1667720015.3,286047002.4,N
1667720035.2,286047001.8,N
1667720055.9,286047004.4,N
1667720075.7,286047001.7,N
1667720095.6,286046999.7,N
1667720115.4,286047002.8,N
1667720135.2,286047002.5,N
1667720155.1,286047001.7,N
1667720156.0,286047001.7,N
1667720175.8,286047003.7,N
1667720195.7,286047004.1,N
1667720215.5,286047002.2,N
1667720265.4,286047002.3,E
1667720275.3,286047000.2,N
1667720295.1,286046999.0,P
1667720315.9,286046999.0,N
1667720335.7,286046997.3,Y
1667720355.5,286046999.1,P
1667720375.4,286046997.3,P
1667720395.2,286046998.6,N
1667720415.1,286046999.2,N
1667720416.0,286046999.2,N
1667720435.8,286046997.9,N
1667720455.6,286046997.7,Y
1667720475.5,286046998.5,P
1667720495.3,286046999.9,N
1667720515.1,286047001.5,N
1667720535.9,286047001.6,N
1667720555.7,286047002.5,N
1667720575.6,286046999.7,N
1667720595.4,286047002.0,N
1667720615.2,286047002.2,N
1667720635.1,286047002.0,N
1667720636.0,286047002.0,N
1667720655.8,286047003.7,N
1667720675.7,286047004.4,N
1667720695.5,286047002.0,N
1667720715.3,286047001.2,N
1667720735.2,286047001.1,N
1667720755.0,286046998.4,N
1667720755.9,286046998.4,N
1667720775.7,286047000.8,N
1667720795.6,286046998.9,N
1667720815.4,286046999.0,N
1667720835.3,286047000.8,N
1667720855.1,286046999.9,N
1667720875.8,286047001.8,N
1667720895.7,286047001.8,N
1667720915.5,286047002.3,N
1667720935.4,286047001.3,N
1667720955.2,286047002.9,N
1667720975.0,286047005.5,Y
1667720975.9,286047005.5,P
1667720995.8,286047001.7,N
1667721015.6,286047003.6,N
1667721035.5,286047003.8,N
1667721055.3,286047002.4,N
1667721075.1,286046998.3,N
1667721095.9,286046999.0,N
1667721115.7,286047000.8,N
1667721135.6,286047000.9,N
1667721155.4,286047002.4,N
1667721175.2,286046999.8,N
1667721195.1,286047000.1,N
1667721196.0,286047000.1,N
1667721215.8,286046999.2,N
1667721235.6,286047001.2,N
1667721255.5,286047000.5,N
1667721275.3,286047000.6,N
1667721295.2,286046998.5,N
1667721315.9,286046999.0,N
1667721335.7,286046999.6,N
1667721355.6,286046999.0,N
1667721375.4,286046999.6,N
1667721395.2,286046998.5,N
1667721415.1,286047001.1,N
1667721416.0,286047001.1,N
1667721435.8,286047000.5,N
1667721455.7,286046999.0,N
1667721475.5,286047000.1,N
1667721495.3,286047002.7,N
1667721515.2,286047004.2,N
1667721535.0,286047003.5,N
1667721535.9,286047003.5,N
1667721555.8,286047001.5,N
1667721575.6,286047002.6,N
1667721595.4,286047000.2,N
